{"data":{"norad_id":46060,"epoch":"2026-09-20T01:41:37.730976Z","epoch_age_seconds":55353,"freshness":"FRESH","line1":"1 46060U 20055AK  26263.07057559  .00000516  00000+0  28423-4 0  9999","line2":"2 46060  53.1566 290.8526 0002043  91.4032 268.7203 15.31698299338807","mean_motion":15.31698299,"eccentricity":0.0002043,"inclination_deg":53.1566,"raan_deg":290.8526,"arg_perigee_deg":91.4032,"mean_anomaly_deg":268.7203,"bstar":2.8423e-5,"rev_number":33880,"period_min":94.013292365744,"perigee_km":469.34583921678,"apogee_km":472.14429242887,"semimajor_km":6848.8820658228,"source":"CELESTRAK","updated_at":"2026-09-20T09:00:38.463414Z"}}